Theta_e
340 342 336 337 339 340 339 334 330 330 331 332 333 335 337 332 325 325 326 326 328 329 329 327 331 333 333 333 331 334 336 332
338 341 343 344 340 340 339 336 332 331 332 333 332 334 330 325 325 326 326 327 327 329 327 327 332 333 333 333 332 333 337 335
337 337 338 340 343 342 339 338 332 332 333 333 332 336 333 330 331 328 327 327 327 327 328 330 334 334 333 334 333 334 336 336
338 338 337 338 338 343 343 341 339 339 339 337 337 336 336 335 333 334 328 328 327 328 331 333 334 336 334 334 335 337 335 338
339 339 338 337 335 339 339 338 337 338 339 340 336 337 337 334 336 336 335 329 333 331 333 335 337 336 335 336 335 338 335 333
340 340 340 339 335 336 333 334 335 336 338 340 337 337 337 333 334 332 333 333 332 333 334 335 336 337 337 337 337 337 335 333
341 341 341 341 340 336 333 333 334 335 338 341 338 338 337 334 333 331 331 332 332 332 331 333 334 336 337 337 337 337 336 333
341 342 342 342 340 338 336 335 334 336 337 340 340 339 337 335 332 332 331 332 332 333 332 332 332 333 334 335 336 335 334 332
341 342 343 343 341 340 338 337 335 336 337 339 341 340 337 335 334 333 333 333 332 332 333 334 334 333 332 332 333 333 332 330
340 343 343 344 342 341 340 339 338 337 336 338 340 340 337 337 334 334 333 332 333 333 332 331 332 331 331 331 330 331 330 329
340 342 343 344 344 342 341 340 339 338 337 336 338 339 338 338 336 334 334 332 332 332 332 331 331 330 329 328 328 328 328 327
342 341 343 344 344 344 342 341 341 340 338 337 338 339 338 338 336 334 334 333 332 332 331 330 330 329 328 327 327 328 328 327
338 342 343 344 345 344 343 343 342 341 340 339 339 340 339 337 336 335 335 334 333 332 332 331 331 330 329 329 329 329 329 328
330 338 342 343 344 344 343 342 342 341 341 341 340 340 340 339 337 335 335 335 334 333 333 333 332 331 331 329 332 330 332 334
329 333 339 342 343 342 342 342 341 341 341 342 342 341 341 340 339 337 335 335 335 335 335 334 333 332 332 331 332 333 333 334
324 333 337 341 342 342 341 340 340 339 340 340 340 341 341 341 341 339 338 336 335 335 334 335 335 333 332 333 333 335 335 337
322 325 336 341 341 341 340 340 338 337 337 338 340 340 341 341 341 341 340 338 336 335 334 336 335 334 332 335 337 336 336 337
330 326 330 337 341 342 341 339 339 338 338 337 337 339 340 341 341 341 341 340 338 337 335 336 336 335 334 332 334 337 338 338
317 321 327 331 337 339 340 340 340 340 339 337 337 337 338 338 340 340 341 340 340 339 337 336 336 336 335 335 334 333 334 336
308 310 311 318 323 324 331 335 339 339 340 339 339 338 337 336 335 337 339 339 339 339 338 338 336 337 336 335 334 334 334 335
Wind_Speed
24 25 29 29 33 34 33 32 31 30 27 25 24 22 20 18 18 17 17 17 19 20 19 18 15 13 11 10 8 7 2 6
23 23 23 25 28 33 32 32 30 29 26 25 23 21 19 18 18 18 17 18 19 20 19 18 14 11 9 8 6 6 3 6
23 24 24 23 23 27 31 31 29 28 25 23 22 16 17 17 15 17 18 18 19 19 19 17 14 11 9 7 6 6 4 6
24 25 26 25 23 24 25 24 24 23 20 21 18 16 16 15 16 16 18 18 19 19 19 18 15 10 9 9 7 5 5 6
25 25 26 27 25 24 26 24 24 22 21 20 20 18 16 16 15 15 16 19 16 19 19 16 14 13 12 10 10 8 7 6
26 26 26 27 25 25 26 26 26 25 24 23 22 20 19 18 17 17 17 18 17 17 17 17 16 16 12 11 12 10 10 9
28 28 27 28 22 26 26 26 27 25 25 26 25 22 20 19 18 18 18 18 19 19 18 18 18 17 16 15 14 13 13 11
30 30 29 28 26 25 24 26 27 26 25 26 28 23 21 21 19 19 19 19 19 18 18 17 18 17 17 17 16 16 15 14
31 30 30 30 29 26 27 26 25 26 25 25 29 24 21 21 21 20 20 19 19 18 18 17 16 16 17 16 17 17 17 16
31 32 32 31 31 28 28 26 26 25 25 26 27 27 23 23 22 21 20 19 19 19 18 18 18 17 17 17 17 17 18 18
30 32 33 33 31 30 29 27 27 26 26 26 27 27 26 23 23 22 21 20 20 20 19 18 17 17 17 17 17 17 17 18
27 31 32 30 31 30 29 28 28 27 27 27 25 27 27 27 24 23 22 22 22 21 20 20 19 17 17 18 18 18 18 19
25 29 30 31 33 31 31 29 29 29 28 27 27 26 27 29 28 25 24 24 24 24 22 19 20 19 16 16 18 18 21 22
23 27 31 34 33 32 31 30 29 29 28 27 29 29 29 30 29 27 28 25 24 24 24 21 22 20 17 17 9 15 20 26
22 24 28 33 35 31 29 29 28 27 27 28 28 30 29 29 30 31 27 29 25 26 25 25 20 21 23 15 5 8 11 13
19 23 25 27 30 30 31 29 27 27 26 27 28 29 31 31 32 31 32 26 28 24 27 26 25 20 19 23 23 17 5 8
14 16 23 25 26 30 22 25 25 24 27 26 28 26 31 31 31 31 29 30 26 29 26 29 26 25 21 19 20 19 18 13
25 13 14 21 24 26 29 25 22 19 20 19 20 23 23 29 30 30 31 30 31 28 30 26 30 27 27 24 21 17 16 15
27 30 23 28 10 21 23 25 22 23 21 19 18 21 19 18 27 29 30 32 31 31 29 33 31 32 30 27 26 23 21 18
34 34 33 28 27 25 12 5 21 24 22 22 21 23 27 28 33 28 27 29 31 31 31 31 33 33 33 32 29 28 26 25
Wind_Direction
171 175 182 187 189 191 189 187 185 184 182 181 181 180 180 179 177 177 176 171 168 166 163 163 158 154 152 152 155 168 168 155
173 177 177 179 188 194 192 190 187 186 185 185 183 182 183 183 182 182 180 176 174 173 171 172 172 170 167 165 158 160 231 166
178 179 180 179 181 190 194 192 189 188 187 188 184 178 184 192 181 195 184 182 180 181 182 183 186 190 192 190 188 235 224 209
184 182 181 180 181 184 184 186 186 185 185 189 182 187 189 189 192 203 190 188 188 189 191 195 199 206 216 216 219 249 237 232
189 187 184 180 181 181 183 189 188 189 190 190 190 190 192 192 194 198 194 194 193 197 201 205 212 215 213 218 227 235 240 238
192 190 189 189 182 183 185 186 188 189 193 193 194 194 192 197 197 194 193 198 198 201 209 212 217 225 234 227 233 240 242 249
196 193 192 195 191 188 190 189 190 192 192 196 198 197 194 198 200 197 198 198 201 204 211 216 222 228 233 236 238 243 251 254
200 199 196 196 197 192 194 192 191 194 195 200 203 200 195 200 202 202 203 204 205 209 212 218 224 230 235 238 242 247 250 252
200 203 199 200 201 195 196 196 197 198 200 201 202 203 200 203 205 206 207 208 207 211 214 220 225 231 238 240 244 249 251 253
209 205 206 203 203 200 198 202 202 203 204 204 206 206 207 205 209 210 211 210 211 214 215 218 225 231 236 239 242 244 248 249
214 207 211 202 209 207 204 205 203 208 208 208 207 209 209 209 214 215 210 211 214 215 217 220 224 231 238 240 244 248 248 249
213 210 207 208 208 209 211 209 207 211 212 213 206 211 212 214 217 219 209 214 214 214 219 217 225 231 238 243 242 250 252 252
211 204 207 211 208 207 214 208 209 210 216 215 211 211 213 215 218 217 214 216 218 214 215 221 218 225 237 244 252 251 249 251
214 214 206 209 214 213 211 214 216 215 215 219 214 213 213 215 217 221 215 218 220 220 212 217 224 218 219 234 246 248 243 230
230 220 214 211 215 214 216 218 220 216 217 217 218 219 217 216 215 219 222 213 218 217 217 216 221 224 221 233 230 236 250 262
248 224 222 214 213 221 217 213 217 219 220 225 225 223 223 223 221 219 222 218 217 218 219 220 224 232 218 227 248 276 295 255
304 283 219 215 212 222 226 225 220 223 221 229 220 225 220 225 224 222 222 225 220 218 219 217 221 225 231 212 225 238 245 258
1 309 269 218 212 213 224 226 231 232 247 227 226 226 229 220 227 225 222 222 224 221 220 220 216 221 226 235 232 219 221 222
26 23 22 12 333 221 222 232 228 230 237 231 226 237 239 229 220 225 226 224 224 222 219 221 221 220 222 224 230 238 244 251
34 35 32 32 33 29 32 302 233 226 235 232 238 223 220 230 230 223 226 231 228 224 225 224 223 225 224 224 227 228 226 224